Regional Weather Roundup
Issued by NWS San Angelo, TX

Home | Current Version | Previous Version | Text Only | Print | Product List | Glossary On
Versions: 1 2 3 4 5 6 7 8 9 10 11 12 13 14 15 16 17 18 19 20 21 22 23 24 25 26 27 28 29 30 31 32 33 34 35 36 37 38 39 40 41 42 43 44 45 46 47 48 49 50
000
ASUS44 KSJT 231810
RWRSJT
WEST CENTRAL TEXAS REGIONAL WEATHER ROUNDUP
NATIONAL WEATHER SERVICE SAN ANGELO TX
100 PM CDT SAT AUG 23 2014

NOTE: "FAIR" INDICATES FEW OR NO CLOUDS BELOW 12,000 FEET WITH NO
SIGNIFICANT WEATHER AND/OR OBSTRUCTIONS TO VISIBILITY.

TXZ049-054-064>066-071>073-076>078-098-099-113-114-127-128-139-140-
154-155-168>170-231900
...LOCATIONS ACROSS WEST CENTRAL TEXAS...

CITY           SKY/WX    TMP DP  RH WIND       PRES   REMARKS
SAN ANGELO     MOSUNNY   94  57  28 S16       30.00F
ABILENE        MOSUNNY   95  54  25 S18       30.00F
DYESS AFB      PTSUNNY   93  57  29 S16       29.99F
JUNCTION       SUNNY     89  58  34 S10       30.03F
SWEETWATER     PTSUNNY   92  52  26 S16G22    30.04F
BROWNWOOD      MOSUNNY   93  57  29 S13       30.01F
COLEMAN        PTCLDY    90  53  28 S9G17     30.03F
SONORA         MOSUNNY   90  57  33 S18       30.07F
OZONA          FAIR      91  54  27 S16G23    30.05F
BRADY          SUNNY     90  61  37 S9        30.03F
$$

TEXAS PANHANDLE/OKLAHOMA PANHANDLE

CITY           SKY/WX    TMP DP  RH WIND       PRES   REMARKS
AMARILLO       MOSUNNY   89  59  36 SW18G24   30.00F
BORGER         MOSUNNY   90  58  33 W16G24    29.95F
CANADIAN       PTSUNNY   91  60  35 SW17G24   29.92F
DALHART        SUNNY     92  46  20 SW22G31   29.98F
DUMAS          CLEAR     87  56  34 SW22G28   29.98F
GUYMON         NOT AVBL
HEREFORD       CLEAR     85  63  48 SW15G24   30.03F
PAMPA          MOCLDY    86  57  37 SW21      29.99S
PERRYTON       MOSUNNY   89  58  34 SW21G28   29.94F
$$

SOUTHERN PANHANDLE/SOUTH PLAINS/ROLLING PLAINS

CITY           SKY/WX    TMP DP  RH WIND       PRES   REMARKS
LUBBOCK        PTSUNNY   90  55  30 SW16G24   30.02F
SNYDER         PTSUNNY   91  58  32 S17       30.02F
CHILDRESS      PTSUNNY   93  54  26 SW20G25   29.96F
SEMINOLE       PTCLDY    87  53  30 SW12      30.05F
$$

PERMIAN BASIN

CITY           SKY/WX    TMP DP  RH WIND       PRES   REMARKS
MIDLAND        PTSUNNY   89  54  30 S12       30.03F
ODESSA         PTSUNNY   87  55  33 SW15      30.04F
WINK           MOSUNNY   88  56  33 S5        30.00F
$$

FAR WEST/SOUTHWEST MOUNTAINS/TRANS PECOS

CITY           SKY/WX    TMP DP  RH WIND       PRES   REMARKS
ALPINE         PTCLDY    82  55  39 SW7       30.19S
DRYDEN           N/A     93  61  34 SE10      30.01F
EL PASO        MOSUNNY   81  57  43 VRB3      30.09F
FORT STOCKTON  MOSUNNY   90  49  24 VRB5      30.04F
GUADALUPE PASS SUNNY     82  54  37 SW20      30.19F
MARFA          MOSUNNY   81  59  47 S7        30.18F
PECOS          CLEAR     88  60  39 S5        30.00F
$$

DALLAS/FORT WORTH METROPLEX

CITY           SKY/WX    TMP DP  RH WIND       PRES   REMARKS
DFW AIRPORT    MOSUNNY   94  60  32 S14       29.99F
FTW MEACHAM    SUNNY     97  61  30 S12       29.98F
DAL-EXECUTIVE  SUNNY     96  58  27 VRB6G17   29.99F
GRAND PRAIRIE  SUNNY     88  63  42 S7        30.03S
ADDISON        SUNNY     91  59  33 S9G17     30.01F
MESQUITE       CLEAR     93  61  33 SE8       30.00F
LANCASTER      CLEAR     94  58  30 SW9       30.00F
$$

NORTH CENTRAL TEXAS

CITY           SKY/WX    TMP DP  RH WIND       PRES   REMARKS
SHRMAN/DENISON CLEAR     95  57  27 S13G20    30.00F
GAINESVILLE    SUNNY     92  61  35 S10       30.00F
BRIDGEPORT     CLEAR     95  53  24 S9        29.99F
DENTON         SUNNY     95  57  27 S15       29.98F
WAXAHACHIE     CLEAR     93  58  30 SW9       30.01F
GRANBURY       CLEAR     97  54  23 S12G17    29.99F
$$

WESTERN NORTH TEXAS

CITY           SKY/WX    TMP DP  RH WIND       PRES   REMARKS
WICHITA FALLS  SUNNY     98  58  26 S16       29.94F
VERNON         PTCLDY    99  53  20 S15G26    29.94F
BRECKENRIDGE   CLEAR     97  54  23 S13G21    29.98F HAZE
COMANCHE       SUNNY     94  54  26 S12       30.02F
$$

CENTRAL AND SOUTH CENTRAL TEXAS

CITY           SKY/WX    TMP DP  RH WIND       PRES   REMARKS
AUSTIN/BERGSTM MOSUNNY   93  68  43 S12G22    30.00F
WACO           SUNNY     93  66  40 S13       30.00F
HILLSBORO      CLEAR     94  60  32 S13       30.00F
TEMPLE         SUNNY     93  66  40 S13       30.00F
KILLEEN-GRAY   MOSUNNY   91  68  46 S12G17    30.01F
FORT HOOD      SUNNY     95  66  38 S9        30.01
GEORGETOWN     MOSUNNY   91  70  49 SE14      30.03F
LAGO VISTA     FAIR      92  65  41 S10       30.04F
SAN MARCOS     MOSUNNY   93  68  43 S13       30.02F
NEW BRAUNFELS  MOSUNNY   94  68  42 S13G18    30.00F
RANDOLPH AFB   MOSUNNY   92  68  44 S10       30.01F
SAN ANTONIO    MOSUNNY   93  69  45 S10G18    30.01F
STINSON        MOSUNNY   93  68  43 SE6       29.98F
PLEASANTON     NOT AVBL
LA GRANGE      SUNNY     96  72  46 S10G16    29.99F
GIDDINGS       PTCLDY    92  67  42 CALM      30.04F
$$

EAST TEXAS

CITY           SKY/WX    TMP DP  RH WIND       PRES   REMARKS
PARIS          SUNNY     91  70  49 SW5       30.02F
CLARKSVILLE    PTCLDY    93  69  45 S5        30.01F
TYLER          SUNNY     92  67  43 SW7       30.03F
LONGVIEW       SUNNY     93  65  39 SW7       30.02F
PALESTINE      CLEAR     92  71  50 S5        30.03F
NACOGDOCHES    MOSUNNY   90  72  55 SW5       30.04F
$$

TEXAS HILL COUNTRY AND EDWARDS PLATEAU

CITY           SKY/WX    TMP DP  RH WIND       PRES   REMARKS
LLANO          CLEAR     93  64  38 S3G18     30.04F
HORSESHOE BAY  FAIR      92  64  38 S8        30.02F
KERRVILLE      SUNNY     86  67  52 S9        30.05F
FREDERICKSBRG  SUNNY     87  64  46 S13G21    30.05F
ROCKSPRINGS    PTCLDY    86  63  45 S12G20    30.08F
HONDO          MOSUNNY   90  69  50 SE12      30.02F
UVALDE         CLEAR     93  66  40 S10G18    30.00F
DEL RIO        SUNNY     91  68  46 SE13      29.96F
$$

SOUTHEAST TEXAS

CITY           SKY/WX    TMP DP  RH WIND       PRES   REMARKS
COLLEGE STN    MOSUNNY   90  71  53 MISG      30.01F
CALDWELL       CLEAR     91  68  46 CALM      30.04F
CROCKETT       CLEAR     93  75  55 S8        30.05F
BRENHAM        SUNNY     94  71  47 SE7       30.02F
HUNTSVILLE     SUNNY     91  69  48 S6        30.03F
CONROE         MOSUNNY   93  70  46 S8        30.03F
HOUSTON BUSH   MOSUNNY   93  71  48 SE8       30.01F
HOUSTON HOBBY  PTSUNNY   93  71  48 CALM      30.00F
PERLAND        SUNNY     94  71  47 VRB7      30.02F
WHARTON        PTCLDY    94  68  42 S9        30.01F
$$

THE UPPER TEXAS COAST

CITY           SKY/WX    TMP DP  RH WIND       PRES   REMARKS
ORANGE         MOCLDY    92  70  47 SE6       30.03F
PORT ARTHUR    PTSUNNY   91  72  53 VRB3      30.02F
GALVESTON      MOSUNNY   90  77  65 SE9       30.03F
ANGLETON       MOSUNNY   92  73  53 S10       30.01F
BAY CITY       PTCLDY    95  70  44 S12       30.01F
$$

TEXAS COASTAL BEND, RIO GRANDE PLAINS DEEP SOUTH TEXAS

CITY           SKY/WX    TMP DP  RH WIND       PRES   REMARKS
VICTORIA       SUNNY     97  67  37 SE10      29.99F
BEEVILLE       FAIR      96  62  32 S13G20    29.98F
ROCKPORT       SUNNY     91  76  61 SE14      30.00F
PORT ARANSAS   CLEAR     87  77  71 SE6       30.00F
PORT LAVACA    CLEAR     92  76  58 E15       30.00S
CORPUS CHRISTI MOSUNNY   95  69  42 SE14G22   29.98F
KINGSVILLE NAS MOSUNNY   96  76  52 SE14      29.97F
COTULLA        SUNNY     95  65  37 S8G17     29.97F
LAREDO         SUNNY     97  68  38 SE16      29.98F
BROWNSVILLE    MOSUNNY   93  73  52 SE9G21    29.97F
PORT ISABEL    SUNNY     91  75  59 SE17      29.97F
HEBBRONVILLE   PTCLDY    93  67  41 SE9G18    29.99F
MCALLEN        MOSUNNY   96  71  44 S12G24    29.96F
WESLACO        MOSUNNY   96  66  37 S12G17    29.95F
FALFURRIAS     PTCLDY    99  69  38 S9        29.96F
EDINBURG       PTCLDY    98  67  36 SE10G17   29.96F
$$


USA.gov is the U.S. government's official web portal to all federal, state and local government web resources and services.